Regional Weather Roundup
Issued by NWS

Home | Current Version | Previous Version | Graphics & Text | Print | Product List | Glossary On
Versions: 1 2 3 4 5 6 7 8 9 10 11 12 13 14 15 16 17 18 19 20 21 22 23 24 25 26 27 28 29 30 31 32 33 34 35 36 37 38 39 40 41 42 43 44 45 46 47 48 49 50
169
ASUS43 KTOP 240459
RWRKS

WEATHER ROUNDUP FOR KANSAS
NATIONAL WEATHER SERVICE GOODLAND KS
1200 AM CDT WED MAY 24 2017

NOTE:  "FAIR" INDICATES FEW OR NO CLOUDS BELOW 12,000 FEET WITH NO
SIGNIFICANT WEATHER AND/OR OBSTRUCTIONS TO VISIBILITY.

KSZ001>006-013>018-027>032-041>047-240600-
NORTHWEST KANSAS

CITY           SKY/WX    TMP DP  RH WIND       PRES   REMARKS
GOODLAND       CLEAR     41  36  82 NW5       30.02S
HAYS           CLEAR     45  40  82 NW6       29.96F
HILL CITY      CLEAR     46  40  79 NW8       29.97F
RUSSELL        CLEAR     47  42  83 NW9       29.93F
$$

KSZ061>065-074>080-084>089-240600-
SOUTHWEST KANSAS

CITY           SKY/WX    TMP DP  RH WIND       PRES   REMARKS
DODGE CITY     PTCLDY    45  38  76 NW7       29.98F
ELKHART          N/A     50  33  52 N3          N/A
GARDEN CITY    CLEAR     44  36  73 N8        30.00S
GREAT BEND     CLEAR     46  42  86 NW7       29.95S
LIBERAL        CLEAR     44  40  85 MISG      30.02S
$$

KSZ066>073-081>083-090>101-240600-
SOUTHEAST KANSAS

CITY           SKY/WX    TMP DP  RH WIND       PRES   REMARKS
CHANUTE        PTCLDY    54  47  77 NW8       29.82F
COFFEYVILLE    CLOUDY    55  50  83 NW10      29.83F
HUTCHINSON     MOCLDY    53  42  66 N10       29.90F
MEDICINE LODGE   N/A     48  40  73 N7        29.93S
NEWTON         CLOUDY    52  46  80 NW12      29.88F
PARSONS        CLOUDY    55  48  77 N7        29.84F
WICHITA INTL   MOCLDY    56  45  66 N13       29.88F
WICHITA JABRA  CLOUDY    54  46  74 N10       29.88F
WINFIELD       CLOUDY    52  47  83 N6        29.88F
$$

KSZ007>012-019>026-033>040-048>060-102>105-240600-
NORTHEAST KANSAS

CITY           SKY/WX    TMP DP  RH WIND       PRES   REMARKS
CONCORDIA      CLEAR     50  44  80 NW9       29.90S
EMPORIA        CLOUDY    53  46  77 NW8       29.84F
LAWRENCE       CLOUDY    53  49  86 W7        29.81F
MANHATTAN      MOCLDY    53  45  74 VRB3      29.86F
OLATHE IND     MOCLDY    52  49  89 NW9       29.80F
OLATHE EXE     PTCLDY    51  50  96 NW5       29.79F
SALINA         PTCLDY    53  45  74 NW9       29.90F
TOPEKA BILLARD CLOUDY    54  48  80 NW8       29.82F
TOPEKA FORBES  MOCLDY    53  48  83 NW8       29.82F
$$




USA.gov is the U.S. government's official web portal to all federal, state and local government web resources and services.